AirNav   Phillips 66 Aviation Fuel
 
 1446 users online  

T67 Hicks Airfield
Fort Worth, Texas, USA

GOING TO FORT WORTH?


FAA INFORMATION EFFECTIVE 06 DECEMBER 2018

Location

FAA Identifier: T67
Lat/Long: 32-55-52.4520N / 097-24-42.0690W
32-55.874200N / 097-24.701150W
32.9312367 / -97.4116858
(estimated)
Elevation: 855 ft. / 261 m (estimated)
Variation: 07E (1986)
From city: 14 miles NW of FORT WORTH, TX
Time zone: UTC -6 (UTC -5 during Daylight Saving Time)
Zip code: 76052

Airport Operations

Airport use: Open to the public
Activation date: 04/1986
Control tower: no
ARTCC: FORT WORTH CENTER
FSS: FORT WORTH FLIGHT SERVICE STATION
NOTAMs facility: FTW (NOTAM-D service available)
Attendance: UNATNDD
Wind indicator: yes
Segmented circle: no
Lights: SS-SR
Beacon: white-green (lighted land airport)
Operates sunset to sunrise.

Airport Communications

CTAF/UNICOM: 123.05
CLEARANCE DELIVERY: 125.9
WX ASOS at AFW (6 nm NE): PHONE 817-491-6188
WX ASOS at FTW (7 nm S): PHONE 817-740-3346
WX ASOS at DFW (19 nm E): PHONE 972-615-2608
WX ASOS at DTO (19 nm NE): 119.325 (940-383-8457)

Nearby radio navigation aids

VOR radial/distance  VOR name  Freq  Var
FUZr276/12.0RANGER VORTAC115.7006E
TTTr275/19.1MAVERICK VOR/DME113.1006E
CVEr269/25.7COWBOY VOR/DME116.2006E
MQPr058/32.0MILLSAP VORTAC117.7009E

 
NDB name  Hdg/Dist  Freq  Var  ID
MUFIN312/3.036508EFT ..-. -

Airport Services

Fuel available: 100LL
FUEL AVBL 24 HRS WITH CREDIT CARD.
Parking: tiedowns
Airframe service: MAJOR
Powerplant service: MAJOR

Runway Information

Runway 14/32

Dimensions: 3740 x 60 ft. / 1140 x 18 m
Surface: asphalt, in good condition
Runway edge lights: medium intensity
RUNWAY 14  RUNWAY 32
Traffic pattern: leftleft
Displaced threshold: 340 ft.191 ft.
Markings: basic, in good conditionbasic, in good condition
Visual slope indicator: 2-light PAPI on left (3.00 degrees glide path)2-light PAPI on left (3.00 degrees glide path)
Obstructions: 27 ft. rr, 201 ft. from runway, 30 ft. right of centerline
+20' RR 60' R AT THR.
5 ft. fence, marked, 201 ft. from runway, 25 ft. left of centerline
15 FT ENTRANCE ROAD 50 FT FM THLD; 20 FT RR 122 FT L AT THLD.

Airport Ownership and Management from official FAA records

Ownership: Privately-owned
Owner: HICKS AIRFIELD PILOTS ASSN
100 AVIATOR DR.
FORT WORTH, TX 76179
Manager: BROCK STREET
595 AVIATOR DR.
FORT WORTH, TX 76179
Phone (817) 779-4664

Airport Operational Statistics

Aircraft based on the field: 328
Single engine airplanes: 300
Multi engine airplanes: 22
Helicopters: 4
Ultralights: 2
    
Aircraft operations: avg 296/day *
90% local general aviation
10% transient general aviation
* for 12-month period ending 29 June 2016

Additional Remarks

RY 14/32 RR PARALLEL & ADJ TO RY ON SW SIDE WITHIN PRIMARY SFC.
ULTRALIGHT OPNS INVOF ARPT.
CALM WIND RY 14.
UNCONTROLLED VEHICLE TRAFFIC INVOF HANGARS & ON TWYS.
FOR CD CTC REGIONAL APCH AT 972-615-2799.

Instrument Procedures

There are no published instrument procedures at T67.

Some nearby airports with instrument procedures:

4T2 - Kenneth Copeland Airport (5 nm NW)
KAFW - Fort Worth Alliance Airport (6 nm NE)
KFTW - Fort Worth Meacham International Airport (7 nm S)
KNFW - Fort Worth Naval Air Station JRB (Carswell Field) Airport (10 nm S)
KWEA - Parker County Airport (18 nm SW)
KDFW - Dallas-Fort Worth International Airport (19 nm E)
KDTO - Denton Enterprise Airport (19 nm NE)
 
Loc | Ops | Rwys | IFR | FBO | Links
Com | Nav | Svcs | Stats | Notes


 
Area around T67 (Hicks Airfield)
 
Road maps at: MapQuest Bing Google
 
Aerial photo
WARNING: Photo may not be current or correct
Aerial photo of T67 (Hicks Airfield)
Photo taken 17-Jul-2007

Do you have a better or more recent aerial photo of Hicks Airfield that you would like to share? If so, please send us your photo.

 
Sectional chart

 
Airport distance calculator
Flying to Hicks Airfield? Find the distance to fly.

From to T67

Sunrise and sunset
Times for 11-Dec-2018
 Local
(UTC-6)
 Zulu
(UTC)
Morning civil twilight06:5612:56
Sunrise07:2313:23
Sunset17:2323:23
Evening civil twilight17:5023:50

Current date and time
Zulu (UTC)  11-Dec-2018 19:26:51
Local (UTC-6)  11-Dec-2018 13:26:51
 
METAR
KAFW 
5nm NE 
111853Z 19018KT 10SM SCT240 BKN300 16/01 A3021 RMK AO2 PK WND 20027/1758 SLP230 T01560006
KFTW 
6nm S 
111853Z 17016G22KT 10SM CLR 16/01 A3021 RMK AO2 PK WND 19026/1804 SLP229 T01560011
KNFW 
10nm S 
111852Z 18015KT 10SM BKN220 17/00 A3022 RMK AO2 SLP216 T01670000 VISNO N $
KDTO 
19nm NE 
111853Z 18017G25KT 10SM CLR 16/M01 A3021 RMK AO2 SLP229 T01561011
KDFW 
20nm E 
111853Z 18015KT 10SM FEW200 BKN250 15/01 A3021 RMK AO2 SLP228 T01500011
TAF
KAFW 
5nm NE 
111720Z 1118/1218 20012G20KT P6SM SCT250 FM120100 20011KT P6SM BKN250 FM121100 19010KT P6SM BKN015 FM121700 19012KT P6SM BKN025
KFTW 
6nm S 
111720Z 1118/1218 20011G20KT P6SM SCT250 FM120100 20011KT P6SM BKN250 FM121100 19011KT P6SM BKN015 FM121700 19014KT P6SM BKN025
KNFW 
10nm S 
1115/1215 20009KT 9999 FEW150 SCT250 QNH3020INS FM112000 19015G22KT 9999 SCT150 BKN250 QNH3012INS FM120800 19012KT 9999 SCT020 BKN120 OVC180 QNH3006INS T07/1115Z T16/1123Z FN20046
KDFW 
20nm E 
111720Z 1118/1224 21011G20KT P6SM SCT250 FM121100 19011KT P6SM BKN015 FM121700 19015KT P6SM BKN025
NOTAMs
Click for the latest NOTAMs
NOTAMs are issued by the DoD/FAA and will open in a separate window not controlled by AirNav.

 

 
 

FBO, Fuel Providers, and Aircraft Ground Support

  
 Business Name 
 
 Contact 
 
 Services / Description 
 
Fuel Prices
 
Comments
  
Rio Concho Aviation 817-233-1058
[email]
Aviation fuel, Aircraft parking (ramp or tiedown), Passenger terminal and lounge, Aircraft charters, Catering, Pilot supplies, Public telephone, Restrooms, Restaurant

More info about Rio Concho Aviation
Avfuel
100LL
SS $4.40 
 Updated 04-Dec-2018
 
   1 read write
SS=Self service
Update Fuel Prices
 

Where to Stay: Hotels, Motels, Resorts, B&Bs, Campgrounds

 The hotels featured here are reported to be very convenient to the Hicks Airfield. If your hotel/inn/B&B/resort is near the Hicks Airfield, provides convenient transportation, or is otherwise attractive to pilots, flight crews, and airport users, consider listing it here.
  
 Business Name 
 
 Contact 
 
 Services / Description 
 
Distance
 
Comments
  
The Hangarlodge 817-405-4464
[web site]
[email]
The Hangar Lodge is a unique space crafted with aviation enthusiasts in mind located at Hicks Airfield (T67). This aircraft hangar has been transformed into a one-of-a-kind lodging destination for enthusiasts, pilots and travelers. With cottage styling and retro flair, this 2 bed, 2.5 bath lodge is sure to impress. We take pride in our space and have outfitted the lodge with custom furnishings and comfortable linens. There is plenty of parking for car and aircraft inside.

We are able to host special events and parties, for an additional fee - please inquire directly for more information.
More info and photos of The Hangarlodge
on airport  
   write
Feature A Hotel
 

Would you like to see your business listed on this page?

 If your business provides an interesting product or service to pilots, flight crews, aircraft, or users of the Hicks Airfield, you should consider listing it here.  To start the listing process, click on the button below
 
Add a business
 

Other Pages about Hicks Airfield

www.t67.org
 
Update a link
 
Copyright © AirNav, LLC. All rights reserved. Privacy Policy  Contact